Temp
10 9 9 8 7 6 6 6 5 5 5 4 4 4 3 3 3 3 3 3 3 3 4 4 4 4 4 5 5 6 6 7 6 8 9 9 10 11 11 12 12 12 13
9 8 7 7 7 6 6 5 5 4 4 3 3 3 3 3 3 3 3 3 3 3 3 3 3 4 4 4 5 5 5 6 6 6 7 8 10 11 11 11 12 12 12
8 7 7 7 6 5 5 5 4 3 3 3 2 2 3 3 3 4 4 3 3 3 3 3 3 4 4 3 4 4 5 6 6 5 6 7 9 10 10 10 10 11 12
7 6 6 6 5 5 4 3 3 2 2 2 2 3 4 3 3 4 3 3 3 3 3 3 3 3 3 3 3 4 5 5 5 4 5 6 8 8 8 9 8 10 11
6 6 5 5 4 4 3 2 2 2 2 2 3 3 3 3 3 3 3 3 3 3 3 3 3 3 4 3 3 3 4 5 4 4 5 6 6 6 6 8 8 10 9
6 5 4 4 3 3 2 2 2 3 3 3 3 3 3 3 3 3 3 3 3 3 3 3 3 3 3 5 5 5 5 4 4 5 5 5 6 7 7 7 7 7 6
5 4 4 3 2 2 2 2 2 3 3 3 2 2 2 2 2 3 4 3 3 3 3 3 3 3 3 3 4 4 5 6 5 3 5 5 6 9 8 6 8 8 8
4 3 3 2 2 1 1 1 2 2 2 2 2 2 2 2 3 3 4 4 3 3 3 3 3 3 3 3 3 3 3 3 4 4 4 5 7 9 9 7 10 10 9
3 3 2 2 1 1 1 2 2 2 2 2 2 2 2 2 2 4 4 4 3 3 3 3 2 3 3 4 4 3 3 3 4 4 3 4 7 8 9 7 8 8 6
2 2 2 1 1 1 1 2 2 2 1 1 1 2 2 2 2 4 4 4 4 3 3 3 3 4 3 4 4 4 4 4 4 5 5 5 6 7 7 8 9 7 6
2 2 1 1 0 1 2 2 1 1 1 1 1 2 2 2 3 4 5 5 4 3 3 2 3 4 4 5 5 5 4 3 4 5 5 6 6 7 7 8 9 10 8
2 1 1 0 1 2 2 1 1 1 1 1 2 3 4 4 4 4 4 5 5 4 3 3 4 4 4 5 5 5 5 5 4 4 4 5 5 6 7 8 8 8 9
1 1 1 2 2 2 1 1 1 1 1 2 3 3 3 3 3 3 4 6 6 5 3 4 4 4 5 5 5 6 6 5 4 3 4 4 6 7 7 8 8 8 8
1 1 1 2 2 1 1 1 1 1 2 3 3 3 3 3 3 4 4 4 5 4 4 4 4 5 5 5 5 4 5 4 4 4 4 5 6 6 6 7 6 7 7
0 -0 1 1 1 1 1 1 1 1 3 3 3 3 3 3 3 4 4 3 3 4 4 4 4 4 4 4 4 2 4 4 4 5 6 6 6 6 6 6 6 5 6
-1 0 1 0 0 1 1 1 1 1 2 2 2 3 2 2 2 2 3 4 4 4 4 4 3 4 4 4 4 4 4 5 5 6 6 6 6 6 6 5 6 5 6
-0 0 0 0 0 1 1 1 1 1 1 1 2 2 2 2 1 1 1 1 2 2 2 2 3 3 4 4 4 4 4 5 5 5 6 5 5 5 5 5 5 5 6
0 0 -0 0 0 0 0 1 1 1 1 1 1 2 1 2 1 1 0 0 0 0 0 1 2 2 3 3 4 3 4 4 4 4 5 5 5 5 5 5 5 5 6
0 -1 0 0 -0 0 0 0 1 1 1 1 1 1 1 1 1 1 0 -1 -0 -0 -0 -0 -0 0 1 2 3 3 4 5 4 3 4 4 5 5 5 5 5 5 6
-0 -1 0 -0 -0 -0 0 0 0 0 0 1 1 1 1 0 -0 -1 -1 -1 -1 -1 -1 -1 -1 -0 -0 0 1 2 3 4 4 3 3 4 5 5 5 6 6 6 6
-1 -1 -0 -1 -0 -0 0 0 0 0 0 0 0 1 1 -0 -1 -1 -1 -2 -2 -2 -2 -1 -1 -1 -1 -1 -0 1 1 3 4 4 4 4 3 4 5 5 6 6 6
-1 -1 -1 -1 -1 -0 -0 -0 -0 0 0 0 0 0 0 -1 -1 -1 -2 -2 -2 -2 -2 -2 -2 -1 -1 -1 -1 -0 1 1 3 4 4 3 3 4 5 5 6 6 6
-1 -1 -1 -1 -1 -0 -0 -0 -0 -0 0 0 -0 -0 -1 -1 -1 -1 -2 -2 -2 -2 -2 -2 -2 -2 -2 -1 -1 -0 0 1 2 3 4 4 4 4 5 5 5 5 5
-2 -1 -1 -1 -1 -1 -1 -1 -0 -0 0 0 -0 -1 -1 -1 -1 -1 -2 -2 -2 -2 -2 -2 -2 -2 -2 -1 -1 0 1 1 2 3 3 4 4 4 5 5 5 5 5
-2 -1 -1 -1 -1 -1 -1 -1 -1 -0 -0 -0 -1 -1 -1 -1 -1 -2 -2 -2 -2 -2 -2 -2 -2 -2 -1 -1 0 1 1 1 2 2 3 4 5 5 5 5 5 4 5
-2 -2 -1 -1 -1 -1 -1 -1 -1 -1 -1 -0 -0 -0 -1 -1 -1 -2 -2 -3 -3 -3 -2 -2 -2 -2 -1 0 2 2 2 2 3 3 4 4 4 4 5 5 5 4 5
Height
815 813 811 808 804 802 797 793 788 784 780 774 770 766 762 759 756 751 748 745 742 740 739 736 734 734 732 732 731 729 727 727 724 719 724 726 727 727 728 729 730 730 730
812 809 806 803 799 795 790 786 783 777 772 768 763 759 755 751 747 743 739 737 734 731 730 728 726 726 724 724 723 720 719 719 720 715 718 718 718 719 720 721 723 723 724
807 804 802 798 794 789 785 781 776 771 766 761 756 751 747 743 739 735 731 727 725 722 721 719 718 717 715 715 714 712 712 711 711 711 710 712 711 711 712 714 715 718 718
804 801 797 793 789 784 779 774 769 764 759 754 749 743 739 734 730 725 721 717 713 711 709 709 708 707 705 705 704 704 704 702 702 702 705 705 702 702 705 707 708 710 712
801 797 792 788 783 778 772 767 762 757 751 746 740 735 730 725 719 715 710 706 703 700 698 697 697 696 695 693 693 693 694 694 693 694 696 696 695 695 697 699 701 704 708
797 793 789 784 778 773 767 761 755 750 744 738 732 727 721 715 709 704 699 694 691 689 687 687 686 686 684 683 681 681 680 683 684 684 688 689 687 687 691 694 696 701 707
794 790 785 779 773 768 762 755 750 743 736 730 724 718 711 705 698 692 687 682 679 676 675 675 673 675 675 674 673 673 672 672 672 673 677 680 682 679 682 689 693 694 697
790 785 780 774 769 763 756 750 743 737 730 723 716 709 703 695 688 681 675 669 667 665 665 664 664 665 665 666 666 666 664 666 666 667 668 673 676 675 678 684 686 689 694
785 781 776 770 764 757 751 745 738 730 723 716 709 701 694 685 679 672 665 658 654 653 653 654 655 655 656 657 658 658 659 659 659 660 663 667 670 671 674 680 682 685 693
782 778 772 766 760 753 746 739 732 724 717 710 702 694 686 678 671 664 656 649 642 644 644 645 648 648 648 649 651 651 652 654 656 657 658 660 666 668 672 675 677 683 690
779 773 767 761 755 749 741 734 726 718 711 704 696 688 680 672 662 654 647 638 633 633 635 637 639 640 642 642 642 644 644 649 651 653 656 657 660 664 668 671 677 680 686
775 769 762 756 751 744 737 728 720 713 706 698 690 682 674 666 658 647 636 626 621 619 626 630 632 635 636 636 636 634 639 643 647 650 652 654 658 661 665 670 676 680 687
771 765 758 753 747 740 733 724 716 709 703 694 686 679 669 662 651 639 621 606 605 611 620 625 629 631 633 633 633 633 634 637 641 646 650 653 657 660 664 670 675 681 686
768 761 755 749 742 736 729 721 714 707 699 690 684 676 669 660 650 636 622 610 608 614 620 624 627 630 631 633 632 629 630 634 637 642 646 651 656 661 666 670 675 680 684
764 758 753 747 740 733 726 719 712 705 698 691 684 677 669 661 651 642 631 625 622 622 624 626 628 630 631 633 634 632 631 633 637 642 645 650 655 660 664 669 673 677 681
763 757 752 745 738 730 723 714 711 704 697 691 685 679 672 665 656 646 639 632 629 628 628 629 631 631 631 634 636 638 637 639 640 643 646 651 654 659 663 667 670 675 679
762 756 749 743 736 729 721 714 706 700 696 691 685 679 674 668 660 652 644 639 636 633 633 633 632 633 633 634 636 637 639 641 642 644 646 650 654 658 662 665 668 671 676
759 754 748 741 735 728 721 715 708 702 697 691 686 681 676 670 664 658 651 644 640 639 638 636 635 634 633 633 634 636 637 639 641 643 645 648 652 656 659 662 666 670 674
757 751 746 740 734 727 721 714 709 704 699 693 687 682 678 673 668 662 657 652 649 645 642 639 637 635 633 632 632 632 633 635 637 640 643 646 650 654 658 660 664 667 671
756 750 745 739 732 726 720 715 709 704 700 695 690 684 680 675 670 665 661 657 653 649 645 642 639 637 635 633 631 630 629 631 634 637 641 645 648 652 656 658 661 664 668
754 749 744 738 732 726 721 716 711 706 701 697 692 689 684 679 675 670 665 660 656 652 647 644 640 638 635 633 631 629 628 628 630 634 638 642 646 650 653 655 658 662 665
753 749 744 738 732 727 722 717 712 708 704 699 695 692 687 682 677 672 667 662 658 653 648 644 640 637 635 632 630 628 627 627 627 629 632 637 641 645 649 652 655 659 662
752 748 744 739 733 728 723 718 714 710 706 702 698 694 689 684 680 674 669 663 658 653 648 643 639 635 632 630 627 625 624 624 625 626 629 631 636 640 644 648 652 656 659
752 749 744 740 734 729 724 720 716 712 709 705 701 697 692 687 683 677 672 666 660 654 648 642 636 631 627 624 621 618 619 621 622 625 627 629 633 636 640 644 648 652 656
752 749 745 741 736 731 726 722 718 714 711 708 704 699 694 690 685 680 674 668 662 656 650 642 634 628 622 616 614 612 612 616 620 624 627 630 632 636 639 642 646 650 655
752 749 746 742 738 733 728 724 720 716 713 709 705 701 697 693 688 683 676 669 663 657 650 642 634 625 617 612 608 608 611 615 620 623 627 630 633 636 639 642 646 649 652
Wind_Speed
12 15 19 18 17 20 24 28 28 32 36 36 34 33 31 31 31 31 31 31 30 29 28 30 29 26 27 25 26 28 27 24 12 27 26 27 32 33 29 27 24 22 25
15 17 16 19 24 28 28 30 31 36 35 33 33 33 31 31 32 31 30 30 31 30 29 30 30 27 28 26 26 26 27 28 22 16 21 26 29 28 27 26 28 24 26
16 16 21 26 28 28 31 32 36 33 33 33 33 33 31 33 32 31 31 31 31 32 32 31 29 28 28 27 28 28 29 29 23 19 21 28 35 31 26 25 23 26 24
17 19 26 28 28 30 34 35 32 31 32 32 32 31 33 33 33 33 32 33 33 32 32 31 33 29 28 28 29 30 28 27 24 18 24 23 28 23 21 20 17 26 25
19 25 27 29 32 36 35 32 32 32 30 34 34 33 33 33 33 32 32 32 32 32 32 30 29 31 32 31 31 31 28 25 21 16 20 16 17 9 15 17 20 24 20
22 24 27 34 33 32 32 32 33 29 35 33 33 33 34 34 36 38 38 36 33 32 31 31 30 33 30 31 32 34 33 30 29 22 20 14 18 16 12 13 12 8 3
20 26 29 31 32 30 32 32 30 33 33 33 33 34 35 36 38 40 40 39 34 31 30 29 24 24 25 27 27 27 30 31 28 33 18 22 21 23 12 18 17 15 11
25 27 29 31 29 31 32 31 32 33 33 33 33 34 35 37 39 39 39 36 33 31 27 26 25 25 26 26 25 27 27 29 24 23 18 30 33 27 24 30 29 20 13
27 29 30 31 31 32 31 31 33 33 33 33 33 33 35 37 37 36 34 32 27 29 29 23 25 27 27 25 24 24 26 22 20 20 21 17 20 15 19 22 20 20 3
26 30 32 32 30 31 31 32 33 33 31 31 33 34 36 35 35 34 34 31 22 21 20 21 23 24 24 23 23 22 19 22 20 18 18 20 18 15 16 19 23 18 9
28 32 33 32 30 29 31 31 30 32 30 31 31 32 35 33 36 32 36 35 23 19 19 18 24 21 20 22 22 23 22 20 24 21 19 19 15 18 17 18 22 25 16
30 32 33 31 26 29 29 32 31 28 26 28 27 27 26 27 31 36 39 40 32 19 19 20 21 17 16 17 17 15 21 23 24 20 18 13 18 15 18 18 16 16 13
30 32 33 26 27 26 28 30 28 26 24 25 20 25 24 31 32 37 45 36 22 12 17 18 16 14 12 11 12 13 16 20 21 17 16 17 20 18 18 16 13 13 12
30 31 26 27 29 27 27 26 24 24 25 19 22 23 25 28 31 35 32 22 10 5 13 14 13 11 8 6 4 7 13 13 18 16 19 24 19 16 15 14 15 15 15
28 27 24 25 26 26 25 26 26 26 26 24 22 24 22 24 31 32 24 16 10 9 5 8 5 5 3 3 5 5 11 3 12 14 18 17 16 14 12 12 14 12 12
24 22 25 25 26 23 25 27 24 22 22 22 23 25 25 26 30 29 25 19 11 8 7 3 2 3 5 4 3 6 6 2 8 10 12 14 16 15 14 14 15 16 14
22 23 25 24 24 24 24 23 22 24 22 20 23 23 24 26 28 30 26 20 21 12 9 5 1 2 4 7 7 7 7 10 10 12 14 16 16 16 13 12 12 17 17
23 25 23 23 23 23 22 22 20 18 18 21 22 20 22 24 24 26 27 26 23 22 15 12 8 6 4 6 8 11 11 11 13 16 17 16 14 11 13 13 14 14 14
24 24 23 23 23 24 22 20 19 18 17 18 20 19 22 21 21 22 23 21 17 17 17 14 14 11 10 5 5 10 15 14 14 15 18 17 18 15 13 16 15 15 16
24 21 22 23 23 22 21 18 17 17 17 16 16 17 19 20 21 22 23 21 19 18 17 16 16 12 11 6 5 3 11 18 18 17 17 20 19 16 15 16 15 14 16
22 21 22 24 22 21 19 17 17 17 16 15 16 20 22 19 19 20 19 19 20 20 19 17 15 13 11 9 6 6 4 6 18 21 19 18 16 17 17 18 21 20 17
19 19 21 21 22 20 18 18 17 17 16 16 16 17 20 19 19 20 20 20 22 20 20 19 17 16 13 12 8 6 7 5 4 18 22 23 19 21 23 18 19 19 19
17 19 20 21 21 20 19 18 18 17 16 16 18 17 18 17 18 20 22 24 25 25 25 24 22 20 18 14 8 8 10 11 10 9 21 22 20 20 21 20 19 19 20
15 18 19 20 21 19 18 17 18 18 17 17 17 17 19 20 22 23 22 23 25 26 27 28 26 25 22 18 10 7 11 15 15 13 13 21 19 21 20 21 22 21 19
14 17 17 19 19 20 19 18 18 17 18 15 16 18 18 20 21 23 23 24 26 27 28 30 30 29 26 21 14 7 15 18 20 17 16 15 16 18 18 19 17 18 16
13 14 16 18 18 19 19 18 18 17 16 16 16 18 18 21 22 24 24 25 29 28 31 32 33 31 30 26 10 9 15 19 21 17 17 17 18 17 19 19 19 18 19
Wind_Direction
332 324 320 318 319 320 319 318 317 316 314 313 308 302 297 297 290 283 279 279 276 277 279 272 272 276 273 273 274 263 253 250 256 268 261 255 256 258 251 255 255 252 242
323 321 320 324 326 325 325 320 317 314 313 306 301 295 290 295 289 278 279 278 272 272 274 271 271 272 271 271 270 268 256 256 248 259 258 247 239 246 253 253 254 249 235
324 324 325 326 326 323 321 318 316 310 303 303 296 289 285 293 288 284 282 276 271 270 270 266 264 268 267 264 267 264 259 251 250 257 263 252 246 242 238 245 249 242 240
326 322 322 325 324 321 319 318 309 304 299 299 296 287 291 289 286 283 280 276 272 267 263 261 264 256 257 257 260 261 262 249 247 255 262 241 240 227 229 233 235 229 227
323 324 325 324 322 321 320 312 306 302 298 299 295 292 292 289 284 281 277 273 270 265 260 262 258 262 258 257 251 253 251 248 247 242 253 252 223 181 197 222 216 209 205
324 324 325 323 323 320 313 307 304 303 304 300 296 294 292 288 287 286 283 279 273 267 264 265 261 267 265 266 267 260 244 235 240 233 238 242 223 195 206 241 184 158 181
323 324 326 328 322 314 309 305 302 307 303 301 299 296 292 291 292 292 288 282 278 270 263 259 250 254 258 259 263 267 260 262 261 225 228 233 227 216 222 248 216 172 173
324 326 327 325 313 310 307 303 304 306 304 303 300 298 296 292 296 296 296 288 280 274 266 256 249 254 260 254 250 261 259 263 259 256 241 233 234 231 207 219 217 187 166
330 329 325 318 311 308 306 308 309 307 306 304 301 298 295 294 298 300 305 301 273 267 261 252 252 254 256 252 251 241 244 253 242 217 222 235 214 208 204 212 172 145 114
333 327 323 316 311 308 307 308 308 307 305 305 301 300 300 297 301 302 300 297 269 265 250 244 248 249 255 254 251 250 244 236 234 222 217 234 228 217 205 202 173 155 131
331 329 326 320 313 312 309 311 310 310 309 305 302 302 301 301 302 301 305 300 283 248 233 232 252 250 253 256 251 244 226 225 231 223 221 220 229 212 199 196 191 178 153
332 329 324 321 320 317 315 315 314 311 308 304 304 309 316 317 317 312 307 298 290 234 210 232 245 252 253 257 256 249 222 212 221 210 216 206 211 209 188 188 186 178 192
330 328 325 323 323 320 321 316 315 315 310 309 318 321 323 329 325 322 317 310 273 226 206 231 243 246 248 258 275 253 230 208 196 199 201 197 199 171 163 169 176 183 195
328 326 322 327 325 326 323 317 314 313 312 320 330 323 335 331 338 343 354 21 70 150 186 214 223 233 232 249 346 4 190 195 164 171 173 181 166 160 158 173 184 190 183
332 326 322 324 324 322 321 320 320 317 325 337 338 339 342 342 353 356 13 29 46 72 121 188 199 217 206 147 100 41 178 136 165 165 153 157 162 166 172 179 188 182 180
332 329 328 326 322 324 323 323 326 328 339 343 345 351 357 359 4 8 12 27 65 59 87 130 163 198 226 216 205 138 142 156 152 169 177 179 176 179 187 189 193 181 184
330 329 327 324 322 325 325 323 327 338 349 351 348 357 7 6 9 14 18 28 32 36 34 10 331 234 249 238 225 217 195 199 203 190 182 185 186 187 184 187 195 194 180
331 333 325 319 327 324 324 326 331 334 333 335 345 356 1 6 11 16 19 26 23 25 22 18 5 349 280 243 243 232 220 209 209 210 203 192 183 188 180 188 192 184 181
336 332 327 328 329 328 329 329 331 332 334 332 342 6 7 10 10 16 19 19 10 8 8 10 15 11 9 352 282 249 233 233 232 217 211 207 191 184 199 181 191 180 180
336 334 333 331 327 329 331 333 336 336 335 338 348 350 5 8 9 8 9 6 3 1 2 4 6 8 8 356 355 310 234 225 213 222 217 207 202 198 205 191 186 173 181
340 334 336 333 331 333 333 336 338 341 340 347 353 6 13 11 6 3 360 356 357 358 0 1 358 357 358 351 344 318 331 214 209 213 210 209 208 204 203 196 190 197 192
345 336 334 334 334 336 341 346 346 347 348 355 2 6 11 12 6 0 357 356 358 2 3 359 355 353 349 343 322 305 283 259 194 200 199 200 205 197 191 190 191 190 185
348 341 340 341 340 345 349 353 353 351 355 2 5 5 7 1 0 358 360 357 0 3 3 0 355 346 345 340 314 269 258 239 213 193 197 194 200 192 192 192 186 182 179
348 345 341 344 345 349 348 351 358 360 2 4 8 1 355 357 1 359 357 355 359 1 359 356 351 346 343 340 326 277 240 221 206 198 175 171 174 178 180 178 174 171 164
345 348 346 349 348 349 348 354 357 359 352 6 3 355 357 360 3 1 357 357 359 358 355 353 351 351 350 350 347 264 209 199 191 189 187 187 178 172 175 175 169 167 176
348 350 350 356 354 358 357 354 353 357 353 353 355 359 7 8 4 1 358 359 0 358 356 351 351 357 360 2 19 149 168 174 178 181 181 184 187 189 184 187 188 194 188